COSMOS 2251 DEB

Satellite information

Favourite Embed

Satellite Type and Status

DEBRISIN ORBIT

Key statistics

Satellite COSMOS 2251 DEB at a glance.

Uptime

11767

Days in orbit

Revolutions

≈ 14.4

Per day

Orbit

LEO

Low Earth Orbit

Inclination

74.0

Latest

Satellite identification and parameters

Extended collection of information and parameters for COSMOS 2251 DEB.

Object identification

Identified? True

Debris? True

Object name: COSMOS 2251 DEB

International designator: 1993-036BLG

Object number (NORAD): 37340

Object ID (CCSDS): 37340

Country: COMMONWEALTH OF INDEPENDENT STATES (CIS)

Current information (Y/N): Y

RCS size: SMALL

Orbital parameters

Period: 100.227 minutes

Inclination: 74.0239 deg

SMA: 7147.411 km

Apoapsis: 782.99 km

Periapsis: 755.563 km

RAAN: 108.0051 deg

Eccentricy: 0.00191868

Argument of periapsis: 233.4342 deg

Mean anomaly: 126.5046 deg

Mean motion: 14.36744677 rev/day

Mean motion (dot): 0.000006 rev/day2

B* drag term: 0.00021208444 1/REarth

Two-line elements (TLE)

Creation date: Aug. 31, 2025, 11:35 a.m.

Reference frame: TEME

Reference center: EARTH

Epoch: Aug. 30, 2025, 11:47 p.m. UTC

TLE line 0: 0 COSMOS 2251 DEB

TLE line 1: 1 37340U 93036BLG 25242.99134211 .00000600 00000-0 21208-3 0 9995

TLE line 2: 2 37340 74.0239 108.0051 0019187 233.4342 126.5046 14.36744677825778

Live tracking on map

Real-time ground track for satellite COSMOS 2251 DEB.

In-orbit conjunctions

A list of the most updated potential collisions computed for object COSMOS 2251 DEB.

Target Orbit TCA Probability of collision Miss distance Type
FENGYUN 1C DEB SSO 2025-07-18 01:41:58 0.0002125759 37.0 (m) DEBRIS
COSMOS 2251 DEB LEO 2025-03-07 07:25:05 0.0001693748 580.0 (m) DEBRIS
PICOSAT 6 SSO 2025-02-13 08:56:04 0.0001288348 299.0 (m) PAYLOAD
CZ-6A DEB LEO 2025-01-18 17:19:23 0.0002074083 436.0 (m) DEBRIS

Associated space launch

Military communications satellite. Destroyed in a collision with Iridium 33.

COSMOS 2251 DEB was lifted into orbit during the mission ‘Kosmos-3M | Strela-2M 51’, on board a Kosmos-3M space rocket.

The launch took place on June 16, 1993, 4:17 a.m. from 132/1 (132L).

For more information about the launch, click the button.

Launch to space Kosmos-3M | Strela-2M 51
Kosmos-3M | Strela-2M 51

Agency: N/A

Status: Launch Successful

Launch date: June 16, 1993, 4:17 a.m. UTC

Rocket: Kosmos-3M

Launch pad: 132/1 (132L)

Location: Plesetsk Cosmodrome, Russian Federation

...

Latest news about this satellite

There are no fresh news available about this satellite. Check back as we update our databases every day.


Newsletter sign-up

Weekly statistics, charts and insights to help you stay on top of the space industry.